Location: La B�doule
(43.2468°N, 5.5934°E)
Time: 00:17:57
(UTC+00:00)

Cosmos 2219 Rocket - Pass Details

Date: 07 June 2020
Orbit: 828 x 846 km, 71.0° (Epoch: 11 July)

Event Time Altitude Azimuth Distance (km) Brightness Sun altitude
Exits shadow 02:41:48 - 183° (S) 2,711 4.4 -11.4°
Reaches altitude 10° 02:42:35 10° 180° (S) 2,425 4.2 -11.4°
Maximum altitude 02:47:53 48° 108° (ESE) 1,075 3.0 -10.7°
Drops below altitude 10° 02:53:13 10° 35° (NE) 2,440 6.2 -10.0°
Sets 02:55:44 0° 30° (NNE) 3,379 7.1 -9.7°
